Orbital Elements at Epoch 2459200.5 (2020-Dec-17.0) TDB
Reference: JPL 42 (heliocentric ecliptic J2000)
Element | Value | Uncertainty (1-sigma) | Units |
e | .01856813220436625 | 3.0116e-08 | |
a | 2.887190694060698 | 1.2877e-08 | au |
q | 2.833580955554163 | 8.6832e-08 | au |
i | 2.977636321421176 | 3.457e-06 | deg |
node | 128.9393717855022 | 6.4403e-05 | deg |
peri | 135.83127482373 | 0.0001159 | deg |
M | 241.56900496132 | 9.7235e-05 | deg |
tp | 2459789.987374802244 (2022-Jul-29.48737480) | 0.00048424 | TDB |
period | 1791.891175612411 4.91 | 1.1988e-05 3.282e-08 | d yr |
n | .200905057684077 | 1.3441e-09 | deg/d |
Q | 2.940800432567233 | 1.3116e-08 | au |
|
| | Orbit Determination Parameters
Additional Information
|